• In Hungary
  • List of Countries
  • For 7 days
  • Water Temperature
  • Satellite Maps
  • Weather Map
  • News
  • Weather Widgets
  • user-avatar
    Login

    Hourly Weather Haywards Heath

    Today, 24 January, Wednesday

    Time Temperature Precipitation Wind Pressure Humidity
    00:00 +9°C° 0 mm 7 mps 757 mmHg 92%
    01:00 +10°C° 0 mm 8 mps 757 mmHg 91%
    02:00 +10°C° 0 mm 9 mps 756 mmHg 89%
    03:00 +10°C° 0 mm 9 mps 755 mmHg 88%
    04:00 +11°C° 0.1 mm 10 mps 755 mmHg 88%
    05:00 +11°C° 0.1 mm 11 mps 754 mmHg 88%
    06:00 +10°C° 0.1 mm 12 mps 753 mmHg 88%
    07:00 +12°C° 0.2 mm 13 mps 752 mmHg 87%
    08:00 +12°C° 0.2 mm 14 mps 751 mmHg 86%
    09:00 +11°C° 0.2 mm 15 mps 751 mmHg 85%
    10:00 +11°C° 0.4 mm 15 mps 750 mmHg 85%
    11:00 +11°C° 0.4 mm 15 mps 750 mmHg 84%
    12:00 +11°C° 0.4 mm 15 mps 750 mmHg 84%
    13:00 +9°C° 1.6 mm 13 mps 750 mmHg 83%
    14:00 +8°C° 1.6 mm 10 mps 751 mmHg 81%
    15:00 +7°C° 1.6 mm 8 mps 751 mmHg 80%
    16:00 +7°C° 0.6 mm 8 mps 751 mmHg 79%
    17:00 +7°C° 0.6 mm 8 mps 751 mmHg 77%
    18:00 +6°C° 0.6 mm 8 mps 751 mmHg 76%
    19:00 +6°C° 0.1 mm 8 mps 752 mmHg 76%
    20:00 +6°C° 0.1 mm 7 mps 752 mmHg 76%
    21:00 +5°C° 0.1 mm 7 mps 752 mmHg 76%
    22:00 +5°C° 0 mm 7 mps 752 mmHg 76%
    23:00 +5°C° 0 mm 7 mps 753 mmHg 77%

    Tomorrow, 25 January, Thursday

    Time Temperature Precipitation Wind Pressure Humidity
    00:00 +5°C° 0 mm 7 mps 753 mmHg 77%
    01:00 +5°C° 0 mm 7 mps 753 mmHg 77%
    02:00 +5°C° 0 mm 7 mps 753 mmHg 77%
    03:00 +5°C° 0 mm 7 mps 753 mmHg 77%
    04:00 +4°C° 0.1 mm 7 mps 753 mmHg 77%
    05:00 +4°C° 0.1 mm 7 mps 752 mmHg 77%
    06:00 +4°C° 0.1 mm 7 mps 752 mmHg 77%
    07:00 +4°C° 0 mm 6 mps 752 mmHg 76%
    08:00 +4°C° 0 mm 6 mps 752 mmHg 76%
    09:00 +5°C° 0 mm 6 mps 752 mmHg 75%
    10:00 +5°C° 0.1 mm 6 mps 752 mmHg 72%
    11:00 +6°C° 0.1 mm 7 mps 752 mmHg 68%
    12:00 +8°C° 0.1 mm 7 mps 752 mmHg 65%
    13:00 +8°C° 0.1 mm 7 mps 752 mmHg 66%
    14:00 +8°C° 0.1 mm 6 mps 751 mmHg 67%
    15:00 +8°C° 0.1 mm 6 mps 751 mmHg 68%
    16:00 +7°C° 0.2 mm 6 mps 751 mmHg 72%
    17:00 +5°C° 0.2 mm 6 mps 751 mmHg 75%
    18:00 +5°C° 0.2 mm 5 mps 752 mmHg 78%
    19:00 +5°C° 0.1 mm 5 mps 752 mmHg 78%
    20:00 +5°C° 0.1 mm 5 mps 752 mmHg 78%
    21:00 +5°C° 0.1 mm 5 mps 752 mmHg 78%
    22:00 +5°C° 0.1 mm 5 mps 752 mmHg 80%
    23:00 +3°C° 0.1 mm 5 mps 753 mmHg 82%

    Day after tomorrow, 26 January, Friday

    Time Temperature Precipitation Wind Pressure Humidity
    00:00 +3°C° 0.1 mm 5 mps 753 mmHg 83%
    01:00 +3°C° 0 mm 5 mps 753 mmHg 84%
    02:00 +3°C° 0 mm 5 mps 753 mmHg 85%
    03:00 +2°C° 0 mm 6 mps 754 mmHg 85%
    04:00 +2°C° 0 mm 6 mps 754 mmHg 86%
    05:00 +2°C° 0 mm 6 mps 755 mmHg 86%
    06:00 +2°C° 0 mm 6 mps 755 mmHg 86%
    07:00 +2°C° 0 mm 6 mps 756 mmHg 86%
    08:00 +2°C° 0 mm 6 mps 757 mmHg 86%
    09:00 +2°C° 0 mm 6 mps 757 mmHg 86%
    10:00 +3°C° 0 mm 6 mps 758 mmHg 83%
    11:00 +4°C° 0 mm 6 mps 759 mmHg 79%
    12:00 +4°C° 0 mm 6 mps 759 mmHg 75%
    13:00 +5°C° 0 mm 6 mps 760 mmHg 75%
    14:00 +6°C° 0 mm 5 mps 760 mmHg 74%
    15:00 +6°C° 0 mm 5 mps 761 mmHg 74%
    16:00 +5°C° 0 mm 5 mps 761 mmHg 76%
    17:00 +4°C° 0 mm 4 mps 762 mmHg 78%
    18:00 +4°C° 0 mm 4 mps 763 mmHg 81%
    19:00 +3°C° 0 mm 3 mps 763 mmHg 83%
    20:00 +3°C° 0 mm 3 mps 764 mmHg 86%
    21:00 +3°C° 0 mm 2 mps 764 mmHg 88%
    22:00 +3°C° 0 mm 2 mps 765 mmHg 89%
    23:00 +3°C° 0 mm 2 mps 765 mmHg 90%

    27 January, Saturday

    Time Temperature Precipitation Wind Pressure Humidity
    00:00 +2°C° 0 mm 2 mps 765 mmHg 90%
    01:00 +2°C° 0 mm 2 mps 766 mmHg 90%
    02:00 +2°C° 0 mm 2 mps 766 mmHg 90%
    03:00 +2°C° 0 mm 2 mps 766 mmHg 91%
    04:00 +3°C° 0 mm 1 mps 766 mmHg 90%
    05:00 +3°C° 0 mm 1 mps 766 mmHg 90%
    06:00 +2°C° 0 mm 1 mps 766 mmHg 90%
    07:00 +3°C° 0 mm 1 mps 766 mmHg 88%
    08:00 +4°C° 0 mm 1 mps 767 mmHg 87%
    09:00 +3°C° 0 mm 2 mps 767 mmHg 85%
    10:00 +4°C° 0 mm 3 mps 767 mmHg 81%
    11:00 +5°C° 0 mm 4 mps 767 mmHg 77%
    12:00 +7°C° 0 mm 5 mps 767 mmHg 72%
    13:00 +7°C° 0 mm 5 mps 767 mmHg 75%
    14:00 +7°C° 0 mm 5 mps 767 mmHg 78%
    15:00 +7°C° 0 mm 6 mps 767 mmHg 81%
    16:00 +7°C° 0 mm 6 mps 767 mmHg 84%
    17:00 +7°C° 0 mm 6 mps 767 mmHg 87%
    18:00 +6°C° 0 mm 7 mps 767 mmHg 90%
    19:00 +7°C° 0 mm 6 mps 767 mmHg 91%
    20:00 +8°C° 0 mm 6 mps 768 mmHg 92%
    21:00 +8°C° 0 mm 6 mps 768 mmHg 93%
    22:00 +8°C° 0 mm 6 mps 768 mmHg 94%
    23:00 +8°C° 0 mm 6 mps 768 mmHg 95%

    28 January, Sunday

    Time Temperature Precipitation Wind Pressure Humidity
    00:00 +8°C° 0 mm 5 mps 768 mmHg 96%
    01:00 +8°C° 0 mm 5 mps 768 mmHg 96%
    02:00 +8°C° 0 mm 5 mps 769 mmHg 96%
    03:00 +8°C° 0 mm 4 mps 769 mmHg 96%
    04:00 +8°C° 0 mm 4 mps 769 mmHg 96%
    05:00 +8°C° 0 mm 4 mps 769 mmHg 96%
    06:00 +8°C° 0 mm 4 mps 769 mmHg 96%
    07:00 +8°C° 0 mm 4 mps 770 mmHg 96%
    08:00 +8°C° 0 mm 4 mps 770 mmHg 96%
    09:00 +10°C° 0 mm 4 mps 771 mmHg 96%
    10:00 +9°C° 0 mm 5 mps 771 mmHg 92%
    11:00 +10°C° 0 mm 5 mps 771 mmHg 89%
    12:00 +12°C° 0 mm 5 mps 771 mmHg 86%
    13:00 +12°C° 0 mm 5 mps 771 mmHg 86%
    14:00 +12°C° 0 mm 5 mps 771 mmHg 86%
    15:00 +12°C° 0 mm 5 mps 771 mmHg 86%
    16:00 +12°C° 0 mm 5 mps 771 mmHg 88%
    17:00 +10°C° 0 mm 5 mps 771 mmHg 89%
    18:00 +10°C° 0 mm 4 mps 772 mmHg 91%
    19:00 +10°C° 0 mm 4 mps 772 mmHg 92%
    20:00 +8°C° 0 mm 4 mps 772 mmHg 94%
    21:00 +8°C° 0 mm 4 mps 772 mmHg 95%
    22:00 +8°C° 0 mm 4 mps 772 mmHg 95%
    23:00 +8°C° 0 mm 4 mps 772 mmHg 94%

    29 January, Monday

    Time Temperature Precipitation Wind Pressure Humidity
    00:00 +8°C° 0 mm 4 mps 772 mmHg 94%
    01:00 +8°C° 0 mm 4 mps 772 mmHg 93%
    02:00 +7°C° 0 mm 4 mps 772 mmHg 93%
    03:00 +8°C° 0 mm 3 mps 772 mmHg 92%
    04:00 +8°C° 0 mm 3 mps 771 mmHg 93%
    05:00 +8°C° 0 mm 3 mps 771 mmHg 94%
    06:00 +7°C° 0 mm 3 mps 771 mmHg 95%
    07:00 +7°C° 0 mm 3 mps 771 mmHg 95%
    08:00 +8°C° 0 mm 3 mps 771 mmHg 95%
    09:00 +8°C° 0 mm 3 mps 772 mmHg 94%
    10:00 +8°C° 0 mm 4 mps 771 mmHg 89%
    11:00 +10°C° 0 mm 4 mps 771 mmHg 85%
    12:00 +12°C° 0 mm 4 mps 771 mmHg 80%
    13:00 +12°C° 0 mm 4 mps 771 mmHg 79%
    14:00 +12°C° 0 mm 5 mps 770 mmHg 78%
    15:00 +12°C° 0 mm 5 mps 770 mmHg 77%
    16:00 +11°C° 0 mm 4 mps 770 mmHg 81%
    17:00 +10°C° 0 mm 4 mps 769 mmHg 85%
    18:00 +8°C° 0 mm 4 mps 769 mmHg 88%
    19:00 +8°C° 0 mm 4 mps 769 mmHg 88%
    20:00 +8°C° 0 mm 4 mps 769 mmHg 88%
    21:00 +8°C° 0 mm 4 mps 769 mmHg 88%
    22:00 +8°C° 0 mm 4 mps 768 mmHg 87%
    23:00 +8°C° 0 mm 4 mps 768 mmHg 87%
    Show more